,

(GMT )
Holesov

Weather History for LKHO - February, 2014

Change the Weather History Date:

Tuesday, February 4, 2014

  Actual Average Record
Temperature  
Mean Temperature 36 °F -  
Max Temperature 43 °F - - ()
Min Temperature 29 °F - - ()
Degree Days  
Heating Degree Days 29    
Moisture  
Dew Point 21 °F    
Average Humidity 44    
Maximum Humidity 74    
Minimum Humidity 25    
Precipitation  
Precipitation 0.00 in - - ()
Sea Level Pressure  
Sea Level Pressure 30.14 in    
Wind  
Wind Speed 9 mph ()    
Max Wind Speed 22 mph    
Max Gust Speed -    
Visibility 11.8 miles    
Events      
T = Trace of Precipitation, MM = Missing Value Source: Averaged Metar Reports

Daily Weather History Graph

Daily Weather History Graph

Search for Another Location

Airport or City:

Trip Planner

Search our weather history database for the weather conditions in past years. The results will help you decide how hot, cold, wet, or windy it might be!

Date:

Astronomy

Feb. 04, 2014 Rise Set
Actual Time 7:17 AM CET 4:50 PM CET
Civil Twilight 6:43 AM CET 5:24 PM CET
Nautical Twilight 6:05 AM CET 6:02 PM CET
Astronomical Twilight 5:28 AM CET 6:39 PM CET
Moon 9:12 AM CET (2/4) 11:01 PM CET (2/4)
Length of Visible Light 10h 41m
Length of Day
9h 33m
Waxing Crescent, 26% of the Moon is Illuminated
Feb 4
Waxing Crescent
Feb 6
First Quarter
Feb 15
Full
Feb 22
Last Quarter
Mar 1
New

Hourly Weather History & Observations

Time (CET) Temp. Dew Point Humidity Pressure Visibility Wind Dir Wind Speed Gust Speed Precip Events Conditions
12:00 AM 33 °F 23 °F 56% 30.19 in 12 mi South 4.5 mph - -  
1:00 AM 31 °F 21 °F 55% 30.19 in 12 mi South 2.2 mph - -  
2:00 AM 34 °F 21 °F 46% 30.17 in 12 mi ESE 8.9 mph - -  
3:00 AM 36 °F 19 °F 36% 30.15 in 12 mi SSE 13.4 mph - -  
4:00 AM 33 °F 18 °F 41% 30.14 in 12 mi SE 13.4 mph - -  
5:00 AM 34 °F 18 °F 38% 30.16 in 12 mi SSE 11.2 mph - -  
6:00 AM 32 °F 18 °F 43% 30.17 in 12 mi SSE 8.9 mph - -  
7:00 AM 30 °F 18 °F 47% 30.17 in 25 mi SSE 8.9 mph - -   Partly Cloudy
8:00 AM 34 °F 22 °F 48% 30.17 in 31 mi SSE 13.4 mph - -   Clear
9:00 AM 37 °F 19 °F 35% 30.16 in 28 mi SSE 11.2 mph - -   Clear
10:00 AM 40 °F 18 °F 27% 30.15 in 28 mi South 17.9 mph - -   Clear
11:00 AM 42 °F 18 °F 25% 30.16 in 28 mi South 15.7 mph - -  
12:00 PM 41 °F 21 °F 31% 30.15 in 28 mi South 17.9 mph - -  
1:00 PM 43 °F 20 °F 27% 30.12 in 28 mi South 17.9 mph - -   Clear
2:00 PM 41 °F 21 °F 31% 30.12 in 28 mi South 17.9 mph - -   Clear
3:00 PM 41 °F 20 °F 30% 30.12 in 25 mi South 17.9 mph - -   Clear
4:00 PM 39 °F 20 °F 34% 30.10 in 25 mi South 15.7 mph - -  
5:00 PM 36 °F 24 °F 48% 30.09 in 12 mi SSE 22.4 mph - -  
6:00 PM 34 °F 21 °F 45% 30.12 in 16 mi South 8.9 mph - -   Partly Cloudy
7:00 PM 32 °F 22 °F 56% 30.12 in 14 mi SSW 8.9 mph - -   Partly Cloudy
8:00 PM 33 °F 24 °F 58% 30.12 in 12 mi SSW 8.9 mph - -  
9:00 PM 31 °F 24 °F 64% 30.12 in 11 mi South 6.7 mph - -  
10:00 PM 30 °F 24 °F 70% 30.12 in 9 mi South 6.7 mph - -  
11:00 PM 29 °F 24 °F 74% 30.11 in 7 mi South 8.9 mph - -